Trinity Center, CA

2:03 AM PDT on October 21, 2017 (GMT -0700)
Trinity Center

Weather History for KO86 - December, 2012

Change the Weather History Date:

Thursday, December 6, 2012

  Actual Average (KMHS) Record (KMHS)
Temperature  
Mean Temperature 40 °F -  
Max Temperature 48 °F 41 °F 65 °F (1944)
Min Temperature 32 °F 28 °F 9 °F (1956)
Degree Days  
Heating Degree Days 25    
Moisture  
Dew Point 36 °F    
Average Humidity 91    
Maximum Humidity 100    
Minimum Humidity 71    
Precipitation  
Precipitation 0.00 in - - ()
Sea Level Pressure  
Sea Level Pressure 30.22 in    
Wind  
Wind Speed 2 mph (West)    
Max Wind Speed 7 mph    
Max Gust Speed -    
Visibility 9 miles    
Events      
Averages and records for this station are not official NWS values.
T = Trace of Precipitation, MM = Missing Value Source: NWS Daily Summary

Daily Weather History Graph

Daily Weather History Graph

Search for Another Location

Airport or City:

Trip Planner

Search our weather history database for the weather conditions in past years. The results will help you decide how hot, cold, wet, or windy it might be!

Date:

Astronomy

Dec. 06, 2012 Rise Set
Actual Time 7:21 AM PST 4:42 PM PST
Civil Twilight 6:50 AM PST 5:13 PM PST
Nautical Twilight 6:16 AM PST 5:47 PM PST
Astronomical Twilight 5:43 AM PST 6:20 PM PST
Moon No Moon Rise 12:14 PM PST (12/6)
Length of Visible Light 10h 22m
Length of Day
9h 20m
Waning Gibbous, 48% of the Moon is Illuminated
Dec 6
Waning Gibbous
Dec 13
New
Dec 19
First Quarter
Dec 28
Full
Jan 4
Last Quarter

Hourly Weather History & Observations

Time (PST) Temp. Windchill Dew Point Humidity Pressure Visibility Wind Dir Wind Speed Gust Speed Precip Events Conditions
12:10 AM 41.0 °F 37.1 °F 39.2 °F 93% 30.20 in 7.0 mi WNW 5.8 mph - N/A   Overcast
12:30 AM 42.8 °F - 39.2 °F 87% 30.20 in 5.0 mi Calm Calm - N/A   Overcast
12:50 AM 41.0 °F 39.0 °F 39.2 °F 93% 30.19 in 10.0 mi WNW 3.5 mph - N/A   Overcast
1:10 AM 41.0 °F - 39.2 °F 93% 30.20 in 10.0 mi Calm Calm - N/A   Overcast
1:30 AM 39.2 °F - 37.4 °F 93% 30.20 in 10.0 mi Calm Calm - N/A   Scattered Clouds
1:50 AM 39.2 °F - 37.4 °F 93% 30.20 in 10.0 mi Calm Calm - N/A   Clear
2:10 AM 37.4 °F - 37.4 °F 100% 30.20 in 10.0 mi Calm Calm - N/A   Clear
2:30 AM 37.4 °F - 37.4 °F 100% 30.20 in 8.0 mi Calm Calm - N/A   Partly Cloudy
2:50 AM 37.4 °F - 35.6 °F 93% 30.21 in 7.0 mi Calm Calm - N/A   Mostly Cloudy
3:10 AM 37.4 °F - 35.6 °F 93% 30.21 in 8.0 mi Calm Calm - N/A   Mostly Cloudy
3:30 AM 35.6 °F - 35.6 °F 100% 30.20 in 10.0 mi Calm Calm - N/A   Partly Cloudy
3:50 AM 35.6 °F - 35.6 °F 100% 30.20 in 7.0 mi Calm Calm - N/A   Partly Cloudy
4:10 AM 35.6 °F - 35.6 °F 100% 30.19 in 10.0 mi Calm Calm - N/A   Partly Cloudy
4:30 AM 35.6 °F - 35.6 °F 100% 30.20 in 10.0 mi Calm Calm - N/A   Clear
4:50 AM 35.6 °F - 35.6 °F 100% 30.20 in 10.0 mi Calm Calm - N/A   Partly Cloudy
5:10 AM 33.8 °F - 33.8 °F 100% 30.20 in 10.0 mi Calm Calm - N/A   Partly Cloudy
5:30 AM 33.8 °F - 32.0 °F 93% 30.19 in 10.0 mi Calm Calm - N/A   Clear
5:50 AM 32.0 °F - 32.0 °F 100% 30.20 in 10.0 mi Calm Calm - N/A   Clear
6:10 AM 32.0 °F 28.7 °F 32.0 °F 100% 30.20 in 10.0 mi West 3.5 mph - N/A   Mostly Cloudy
6:30 AM 32.0 °F - 32.0 °F 100% 30.20 in 10.0 mi Calm Calm - N/A   Overcast
6:50 AM 32.0 °F - 32.0 °F 100% 30.20 in 10.0 mi Calm Calm - N/A   Overcast
7:10 AM 32.0 °F 28.7 °F 32.0 °F 100% 30.21 in 10.0 mi West 3.5 mph - N/A   Overcast
7:30 AM 32.0 °F - 32.0 °F 100% 30.21 in 10.0 mi Calm Calm - N/A   Mostly Cloudy
7:50 AM 32.0 °F 28.7 °F 32.0 °F 100% 30.21 in 7.0 mi WNW 3.5 mph - N/A   Partly Cloudy
8:10 AM 33.8 °F 30.8 °F 32.0 °F 93% 30.22 in 10.0 mi West 3.5 mph - N/A   Mostly Cloudy
8:30 AM 35.6 °F - 33.8 °F 93% 30.22 in 9.0 mi Calm Calm - N/A   Overcast
8:50 AM 35.6 °F - 35.6 °F 100% 30.23 in 10.0 mi Calm Calm - N/A   Overcast
9:10 AM 35.6 °F - 35.6 °F 100% 30.23 in 10.0 mi Calm Calm - N/A   Overcast
9:30 AM 35.6 °F - 35.6 °F 100% 30.23 in 10.0 mi Calm Calm - N/A   Overcast
9:50 AM 37.4 °F - 35.6 °F 93% 30.24 in 10.0 mi Calm Calm - N/A   Overcast
10:10 AM 37.4 °F - 35.6 °F 93% 30.25 in 10.0 mi Calm Calm - N/A   Overcast
10:30 AM 39.2 °F - 35.6 °F 87% 30.25 in 10.0 mi Calm Calm - N/A   Mostly Cloudy
10:50 AM 39.2 °F - 35.6 °F 87% 30.24 in 10.0 mi Calm Calm - N/A   Clear
11:10 AM 41.0 °F - 35.6 °F 81% 30.23 in 10.0 mi Calm Calm - N/A   Clear
11:30 AM 41.0 °F - 35.6 °F 81% 30.23 in 10.0 mi Calm Calm - N/A   Clear
11:50 AM 42.8 °F 41.1 °F 35.6 °F 76% 30.22 in 10.0 mi ENE 3.5 mph - N/A   Clear
12:10 PM 44.6 °F - 35.6 °F 71% 30.21 in 10.0 mi Calm Calm - N/A   Clear
12:30 PM 44.6 °F - 37.4 °F 76% 30.20 in 10.0 mi Calm Calm - N/A   Clear
12:50 PM 44.6 °F - 37.4 °F 76% 30.19 in 10.0 mi Calm Calm - N/A   Clear
1:10 PM 46.4 °F 45.2 °F 37.4 °F 71% 30.18 in 10.0 mi SE 3.5 mph - N/A   Clear
1:30 PM 46.4 °F 45.2 °F 37.4 °F 71% 30.18 in 10.0 mi ESE 3.5 mph - N/A   Clear
1:50 PM 48.2 °F - 39.2 °F 71% 30.17 in 10.0 mi SSE 6.9 mph - N/A   Clear
2:10 PM 48.2 °F - 39.2 °F 71% 30.17 in 10.0 mi South 6.9 mph - N/A   Clear
2:50 PM 46.4 °F 43.5 °F 39.2 °F 76% 30.18 in 10.0 mi South 5.8 mph - N/A   Clear
3:10 PM 46.4 °F - 39.2 °F 76% 30.18 in 10.0 mi Calm Calm - N/A   Clear
3:30 PM 46.4 °F - 39.2 °F 76% 30.18 in 10.0 mi Calm Calm - N/A   Clear
4:30 PM 42.8 °F - 39.2 °F 87% 30.19 in 2.0 mi Calm Calm - N/A   Clear
4:50 PM 41.0 °F 38.0 °F 39.2 °F 93% 30.20 in 5.0 mi NW 4.6 mph - N/A   Clear
5:10 PM 41.0 °F 39.0 °F 39.2 °F 93% 30.20 in 7.0 mi WNW 3.5 mph - N/A   Clear
5:30 PM 39.2 °F - 37.4 °F 93% 30.21 in 10.0 mi Calm Calm - N/A   Clear
5:50 PM 39.2 °F 35.9 °F 37.4 °F 93% 30.22 in 5.0 mi West 4.6 mph - N/A   Clear
6:10 PM 39.2 °F 37.0 °F 37.4 °F 93% 30.23 in 10.0 mi West 3.5 mph - N/A   Clear
6:30 PM 37.4 °F 33.8 °F 37.4 °F 100% 30.23 in 10.0 mi West 4.6 mph - N/A   Mostly Cloudy
6:50 PM 39.2 °F 37.0 °F 37.4 °F 93% 30.23 in 10.0 mi West 3.5 mph - N/A   Overcast
7:10 PM 37.4 °F 33.8 °F 35.6 °F 93% 30.23 in 10.0 mi West 4.6 mph - N/A   Overcast
7:30 PM 39.2 °F 35.9 °F 35.6 °F 87% 30.24 in 10.0 mi West 4.6 mph - N/A   Overcast
7:50 PM 39.2 °F 35.9 °F 35.6 °F 87% 30.24 in 10.0 mi West 4.6 mph - N/A   Overcast
8:10 PM 39.2 °F 37.0 °F 35.6 °F 87% 30.24 in 10.0 mi WNW 3.5 mph - N/A   Overcast
8:30 PM 39.2 °F - 37.4 °F 93% 30.25 in 10.0 mi Calm Calm - N/A   Overcast
8:50 PM 39.2 °F - 37.4 °F 93% 30.25 in 10.0 mi Calm Calm - N/A   Overcast
9:10 PM 39.2 °F - 37.4 °F 93% 30.26 in 10.0 mi Calm Calm - N/A   Overcast
9:30 PM 39.2 °F 37.0 °F 37.4 °F 93% 30.26 in 10.0 mi WNW 3.5 mph - N/A   Overcast
9:50 PM 37.4 °F - 37.4 °F 100% 30.26 in 10.0 mi Calm Calm - N/A   Overcast
10:10 PM 37.4 °F 34.9 °F 35.6 °F 93% 30.27 in 10.0 mi North 3.5 mph - N/A   Overcast
10:30 PM 37.4 °F - 35.6 °F 93% 30.26 in 10.0 mi Calm Calm - N/A   Overcast
10:50 PM 37.4 °F 34.9 °F 35.6 °F 93% 30.26 in 10.0 mi West 3.5 mph - N/A   Overcast
11:10 PM 37.4 °F - 35.6 °F 93% 30.26 in 10.0 mi Calm Calm - N/A   Overcast
11:30 PM 37.4 °F - 35.6 °F 93% 30.27 in 10.0 mi Calm Calm - N/A   Overcast
11:50 PM 37.4 °F - 35.6 °F 93% 30.27 in 10.0 mi Calm Calm - N/A   Overcast